PRIVATE WETTERSTATION BILLIGHEIM-ALLFELD                       ZURCK
Wetterdaten: Donnerstag, 27.03.2014
Datum Zeit Temp. A. Temp. A. min Temp. A. max Feuchte A. Luftdruck Regen Wind Richtung Richtung Sonnenschein ET Solar Taupunkt Windchill Windben Empfang
27.03.2014 00:00 4,7 C 4,7 C 4,9 C 71 % 1011,8 hPa 0,0 l/m 0,0 km/h (0 Bft) NO 45 0 min 0,025 mm 0 W/m -0,1 C 4,7 C 4,8 km/h (1 Bft) 100 %
27.03.2014 00:10 4,6 C 4,5 C 4,7 C 72 % 1011,8 hPa 0,0 l/m 1,6 km/h (1 Bft) NO 45 0 min 0,000 mm 0 W/m -0,0 C 4,6 C 4,8 km/h (1 Bft) 100 %
27.03.2014 00:20 4,4 C 4,4 C 4,6 C 73 % 1011,8 hPa 0,0 l/m 1,6 km/h (1 Bft) NO 45 0 min 0,000 mm 0 W/m -0,0 C 4,4 C 4,8 km/h (1 Bft) 100 %
27.03.2014 00:30 4,3 C 4,3 C 4,4 C 73 % 1011,6 hPa 0,0 l/m 1,6 km/h (1 Bft) NO 45 0 min 0,000 mm 0 W/m -0,1 C 4,3 C 6,4 km/h (2 Bft) 100 %
27.03.2014 00:40 4,2 C 4,2 C 4,3 C 74 % 1011,7 hPa 0,0 l/m 1,6 km/h (1 Bft) NO 45 0 min 0,000 mm 0 W/m -0,0 C 4,2 C 8,0 km/h (2 Bft) 88 %
27.03.2014 00:50 4,1 C 4,1 C 4,1 C 74 % 1011,7 hPa 0,0 l/m 3,2 km/h (1 Bft) NO 45 0 min 0,000 mm 0 W/m -0,1 C 4,1 C 6,4 km/h (2 Bft) 100 %
27.03.2014 01:00 4,1 C 4,1 C 4,1 C 74 % 1011,6 hPa 0,0 l/m 3,2 km/h (1 Bft) NO 45 0 min 0,025 mm 0 W/m -0,1 C 4,1 C 11,3 km/h (2 Bft) 100 %
27.03.2014 01:10 4,0 C 4,0 C 4,1 C 74 % 1011,6 hPa 0,0 l/m 3,2 km/h (1 Bft) NO 45 0 min 0,000 mm 0 W/m -0,2 C 4,0 C 8,0 km/h (2 Bft) 100 %
27.03.2014 01:20 3,8 C 3,8 C 4,0 C 75 % 1011,5 hPa 0,0 l/m 1,6 km/h (1 Bft) NO 45 0 min 0,000 mm 0 W/m -0,2 C 3,8 C 4,8 km/h (1 Bft) 100 %
27.03.2014 01:30 3,7 C 3,7 C 3,8 C 75 % 1011,5 hPa 0,0 l/m 0,0 km/h (0 Bft) NO 45 0 min 0,000 mm 0 W/m -0,3 C 3,7 C 4,8 km/h (1 Bft) 100 %
27.03.2014 01:40 3,4 C 3,4 C 3,7 C 76 % 1011,4 hPa 0,0 l/m 0,0 km/h (0 Bft) NO 45 0 min 0,000 mm 0 W/m -0,4 C 3,4 C 4,8 km/h (1 Bft) 100 %
27.03.2014 01:50 3,2 C 3,2 C 3,4 C 77 % 1011,4 hPa 0,0 l/m 0,0 km/h (0 Bft) N-NO 22 0 min 0,000 mm 0 W/m -0,4 C 3,2 C 4,8 km/h (1 Bft) 99 %
27.03.2014 02:00 3,2 C 3,2 C 3,2 C 78 % 1011,3 hPa 0,0 l/m 0,0 km/h (0 Bft) N-NO 22 0 min 0,025 mm 0 W/m -0,3 C 3,2 C 6,4 km/h (2 Bft) 100 %
27.03.2014 02:10 3,2 C 3,2 C 3,2 C 77 % 1011,3 hPa 0,0 l/m 0,0 km/h (0 Bft) N-NO 22 0 min 0,000 mm 0 W/m -0,4 C 3,2 C 6,4 km/h (2 Bft) 100 %
27.03.2014 02:20 3,1 C 3,1 C 3,2 C 78 % 1011,3 hPa 0,0 l/m 0,0 km/h (0 Bft) N-NO 22 0 min 0,000 mm 0 W/m -0,4 C 3,1 C 4,8 km/h (1 Bft) 100 %
27.03.2014 02:30 2,9 C 2,9 C 3,1 C 78 % 1011,2 hPa 0,0 l/m 0,0 km/h (0 Bft) N 360 0 min 0,000 mm 0 W/m -0,5 C 2,9 C 3,2 km/h (1 Bft) 91 %
27.03.2014 02:40 2,7 C 2,7 C 2,9 C 79 % 1011,0 hPa 0,0 l/m 0,0 km/h (0 Bft) N 360 0 min 0,000 mm 0 W/m -0,6 C 2,7 C 1,6 km/h (1 Bft) 100 %
27.03.2014 02:50 2,5 C 2,5 C 2,7 C 80 % 1011,1 hPa 0,0 l/m 0,0 km/h (0 Bft) N 0 0 min 0,000 mm 0 W/m -0,6 C 2,5 C 0,0 km/h (0 Bft) 100 %
27.03.2014 03:00 2,3 C 2,3 C 2,5 C 80 % 1011,1 hPa 0,0 l/m 0,0 km/h (0 Bft) N 360 0 min 0,000 mm 0 W/m -0,8 C 2,3 C 1,6 km/h (1 Bft) 100 %
27.03.2014 03:10 2,2 C 2,2 C 2,3 C 81 % 1011,0 hPa 0,0 l/m 0,0 km/h (0 Bft) N 360 0 min 0,000 mm 0 W/m -0,7 C 2,2 C 1,6 km/h (1 Bft) 100 %
27.03.2014 03:20 2,2 C 2,2 C 2,2 C 82 % 1011,0 hPa 0,0 l/m 0,0 km/h (0 Bft) N 360 0 min 0,000 mm 0 W/m -0,5 C 2,2 C 1,6 km/h (1 Bft) 100 %
27.03.2014 03:30 2,1 C 2,1 C 2,2 C 82 % 1011,0 hPa 0,0 l/m 0,0 km/h (0 Bft) N 360 0 min 0,000 mm 0 W/m -0,6 C 2,1 C 1,6 km/h (1 Bft) 100 %
27.03.2014 03:40 1,9 C 1,9 C 2,1 C 82 % 1010,9 hPa 0,0 l/m 0,0 km/h (0 Bft) N 360 0 min 0,000 mm 0 W/m -0,8 C 1,9 C 1,6 km/h (1 Bft) 100 %
27.03.2014 03:50 1,7 C 1,7 C 1,9 C 82 % 1011,0 hPa 0,0 l/m 0,0 km/h (0 Bft) N 360 0 min 0,000 mm 0 W/m -1,0 C 1,7 C 1,6 km/h (1 Bft) 99 %
27.03.2014 04:00 1,6 C 1,6 C 1,7 C 83 % 1011,0 hPa 0,0 l/m 0,0 km/h (0 Bft) N 360 0 min 0,000 mm 0 W/m -1,0 C 1,6 C 1,6 km/h (1 Bft) 89 %
27.03.2014 04:10 1,4 C 1,4 C 1,6 C 83 % 1011,0 hPa 0,0 l/m 0,0 km/h (0 Bft) N 360 0 min 0,000 mm 0 W/m -1,2 C 1,4 C 1,6 km/h (1 Bft) 100 %
27.03.2014 04:20 1,3 C 1,3 C 1,4 C 83 % 1011,0 hPa 0,0 l/m 0,0 km/h (0 Bft) N 360 0 min 0,000 mm 0 W/m -1,3 C 1,3 C 3,2 km/h (1 Bft) 100 %
27.03.2014 04:30 1,1 C 1,1 C 1,3 C 83 % 1011,0 hPa 0,0 l/m 0,0 km/h (0 Bft) N 0 0 min 0,000 mm 0 W/m -1,5 C 1,1 C 0,0 km/h (0 Bft) 100 %
27.03.2014 04:40 0,9 C 0,9 C 1,1 C 84 % 1011,0 hPa 0,0 l/m 0,0 km/h (0 Bft) N 360 0 min 0,000 mm 0 W/m -1,5 C 0,9 C 1,6 km/h (1 Bft) 100 %
27.03.2014 04:50 0,9 C 0,8 C 0,9 C 85 % 1011,1 hPa 0,0 l/m 0,0 km/h (0 Bft) N 360 0 min 0,000 mm 0 W/m -1,3 C 0,9 C 1,6 km/h (1 Bft) 100 %
27.03.2014 05:00 0,8 C 0,8 C 0,9 C 85 % 1011,0 hPa 0,0 l/m 0,0 km/h (0 Bft) N 360 0 min 0,000 mm 0 W/m -1,4 C 0,8 C 3,2 km/h (1 Bft) 100 %
27.03.2014 05:10 0,8 C 0,8 C 0,8 C 85 % 1011,2 hPa 0,0 l/m 0,0 km/h (0 Bft) N 0 0 min 0,000 mm 0 W/m -1,4 C 0,8 C 0,0 km/h (0 Bft) 100 %
27.03.2014 05:20 0,8 C 0,8 C 0,8 C 85 % 1011,1 hPa 0,0 l/m 0,0 km/h (0 Bft) N 360 0 min 0,000 mm 0 W/m -1,4 C 0,8 C 1,6 km/h (1 Bft) 100 %
27.03.2014 05:30 0,8 C 0,7 C 0,8 C 85 % 1011,1 hPa 0,0 l/m 0,0 km/h (0 Bft) N 360 0 min 0,000 mm 0 W/m -1,4 C 0,8 C 1,6 km/h (1 Bft) 100 %
27.03.2014 05:40 0,9 C 0,8 C 0,9 C 85 % 1011,2 hPa 0,0 l/m 0,0 km/h (0 Bft) N 360 0 min 0,000 mm 0 W/m -1,3 C 0,9 C 1,6 km/h (1 Bft) 100 %
27.03.2014 05:50 0,9 C 0,9 C 0,9 C 85 % 1011,3 hPa 0,0 l/m 0,0 km/h (0 Bft) N 360 0 min 0,000 mm 0 W/m -1,3 C 0,9 C 1,6 km/h (1 Bft) 100 %
27.03.2014 06:00 0,8 C 0,8 C 0,9 C 84 % 1011,3 hPa 0,0 l/m 0,0 km/h (0 Bft) N 360 0 min 0,000 mm 0 W/m -1,6 C 0,8 C 1,6 km/h (1 Bft) 100 %
27.03.2014 06:10 0,7 C 0,7 C 0,8 C 85 % 1011,3 hPa 0,0 l/m 0,0 km/h (0 Bft) N 360 0 min 0,000 mm 0 W/m -1,5 C 0,7 C 1,6 km/h (1 Bft) 100 %
27.03.2014 06:20 0,6 C 0,6 C 0,7 C 85 % 1011,5 hPa 0,0 l/m 0,0 km/h (0 Bft) N 360 0 min 0,000 mm 5 W/m -1,6 C 0,6 C 1,6 km/h (1 Bft) 100 %
27.03.2014 06:30 0,6 C 0,6 C 0,6 C 85 % 1011,6 hPa 0,0 l/m 1,6 km/h (1 Bft) NW 315 0 min 0,000 mm 7 W/m -1,6 C 0,6 C 4,8 km/h (1 Bft) 100 %
27.03.2014 06:40 0,5 C 0,5 C 0,6 C 85 % 1011,6 hPa 0,0 l/m 0,0 km/h (0 Bft) NW 315 0 min 0,000 mm 9 W/m -1,7 C 0,5 C 1,6 km/h (1 Bft) 89 %
27.03.2014 06:50 0,4 C 0,4 C 0,5 C 85 % 1011,6 hPa 0,0 l/m 0,0 km/h (0 Bft) NW 315 0 min 0,000 mm 16 W/m -1,8 C 0,4 C 1,6 km/h (1 Bft) 100 %
27.03.2014 07:00 0,4 C 0,3 C 0,4 C 86 % 1011,7 hPa 0,0 l/m 0,0 km/h (0 Bft) N 0 0 min 0,000 mm 28 W/m -1,7 C 0,4 C 0,0 km/h (0 Bft) 100 %
27.03.2014 07:10 0,6 C 0,4 C 0,6 C 86 % 1011,6 hPa 0,0 l/m 0,0 km/h (0 Bft) NW 315 0 min 0,000 mm 28 W/m -1,5 C 0,6 C 3,2 km/h (1 Bft) 100 %
27.03.2014 07:20 0,8 C 0,6 C 0,8 C 86 % 1011,6 hPa 0,0 l/m 0,0 km/h (0 Bft) NW 315 0 min 0,000 mm 40 W/m -1,3 C 0,8 C 1,6 km/h (1 Bft) 100 %
27.03.2014 07:30 1,1 C 0,8 C 1,1 C 86 % 1011,7 hPa 0,0 l/m 0,0 km/h (0 Bft) NW 315 0 min 0,000 mm 121 W/m -1,0 C 1,1 C 1,6 km/h (1 Bft) 100 %
27.03.2014 07:40 1,7 C 1,1 C 1,7 C 86 % 1011,7 hPa 0,0 l/m 0,0 km/h (0 Bft) NW 315 10 min 0,000 mm 181 W/m -0,4 C 1,7 C 1,6 km/h (1 Bft) 100 %
27.03.2014 07:50 2,6 C 1,7 C 2,6 C 84 % 1011,7 hPa 0,0 l/m 1,6 km/h (1 Bft) N-NO 22 10 min 0,000 mm 209 W/m 0,2 C 2,6 C 8,0 km/h (2 Bft) 100 %
27.03.2014 08:00 3,7 C 2,8 C 3,7 C 79 % 1011,8 hPa 0,0 l/m 1,6 km/h (1 Bft) NO 45 10 min 0,051 mm 232 W/m 0,4 C 3,7 C 9,7 km/h (2 Bft) 100 %
27.03.2014 08:10 4,5 C 3,8 C 4,5 C 76 % 1011,6 hPa 0,0 l/m 1,6 km/h (1 Bft) NO 45 10 min 0,000 mm 260 W/m 0,6 C 4,5 C 6,4 km/h (2 Bft) 100 %
27.03.2014 08:20 5,1 C 4,6 C 5,1 C 74 % 1011,5 hPa 0,0 l/m 1,6 km/h (1 Bft) NO 45 10 min 0,000 mm 271 W/m 0,9 C 5,1 C 9,7 km/h (2 Bft) 100 %
27.03.2014 08:30 5,6 C 5,1 C 5,6 C 73 % 1011,4 hPa 0,0 l/m 1,6 km/h (1 Bft) N-NO 22 10 min 0,000 mm 318 W/m 1,2 C 5,6 C 8,0 km/h (2 Bft) 100 %
27.03.2014 08:40 6,2 C 5,6 C 6,2 C 73 % 1011,3 hPa 0,0 l/m 1,6 km/h (1 Bft) NO 45 10 min 0,000 mm 359 W/m 1,7 C 6,2 C 14,5 km/h (3 Bft) 100 %
27.03.2014 08:50 6,7 C 6,2 C 6,7 C 70 % 1011,4 hPa 0,0 l/m 1,6 km/h (1 Bft) NO 45 10 min 0,000 mm 374 W/m 1,6 C 6,7 C 9,7 km/h (2 Bft) 100 %
27.03.2014 09:00 7,3 C 6,7 C 7,3 C 70 % 1011,3 hPa 0,0 l/m 0,0 km/h (0 Bft) NO 45 10 min 0,127 mm 390 W/m 2,2 C 7,3 C 6,4 km/h (2 Bft) 100 %
27.03.2014 09:10 7,8 C 7,3 C 7,8 C 66 % 1011,3 hPa 0,0 l/m 1,6 km/h (1 Bft) NO 45 10 min 0,000 mm 429 W/m 1,9 C 7,8 C 6,4 km/h (2 Bft) 100 %
27.03.2014 09:20 8,0 C 7,8 C 8,0 C 65 % 1011,2 hPa 0,0 l/m 3,2 km/h (1 Bft) NO 45 10 min 0,000 mm 455 W/m 1,8 C 8,0 C 19,3 km/h (3 Bft) 100 %
27.03.2014 09:30 8,2 C 8,0 C 8,2 C 66 % 1011,3 hPa 0,0 l/m 1,6 km/h (1 Bft) NO 45 10 min 0,000 mm 482 W/m 2,2 C 8,2 C 12,9 km/h (3 Bft) 100 %
27.03.2014 09:40 8,6 C 8,2 C 8,6 C 65 % 1011,3 hPa 0,0 l/m 1,6 km/h (1 Bft) O-NO 67 10 min 0,000 mm 497 W/m 2,4 C 8,6 C 9,7 km/h (2 Bft) 100 %
27.03.2014 09:50 9,0 C 8,6 C 9,0 C 63 % 1011,1 hPa 0,0 l/m 1,6 km/h (1 Bft) NO 45 10 min 0,000 mm 517 W/m 2,3 C 9,0 C 9,7 km/h (2 Bft) 100 %
27.03.2014 10:00 9,1 C 9,0 C 9,1 C 61 % 1011,2 hPa 0,0 l/m 1,6 km/h (1 Bft) NO 45 10 min 0,203 mm 540 W/m 2,0 C 9,1 C 9,7 km/h (2 Bft) 99 %
27.03.2014 10:10 9,3 C 9,1 C 9,3 C 61 % 1011,2 hPa 0,0 l/m 1,6 km/h (1 Bft) NO 45 10 min 0,000 mm 554 W/m 2,2 C 9,3 C 20,9 km/h (4 Bft) 100 %
27.03.2014 10:20 9,4 C 9,3 C 9,4 C 61 % 1011,2 hPa 0,0 l/m 1,6 km/h (1 Bft) NO 45 10 min 0,000 mm 571 W/m 2,3 C 9,4 C 14,5 km/h (3 Bft) 99 %
27.03.2014 10:30 9,6 C 9,4 C 9,6 C 60 % 1011,1 hPa 0,0 l/m 3,2 km/h (1 Bft) NO 45 10 min 0,000 mm 587 W/m 2,2 C 9,6 C 19,3 km/h (3 Bft) 100 %
27.03.2014 10:40 9,7 C 9,6 C 9,7 C 62 % 1011,0 hPa 0,0 l/m 1,6 km/h (1 Bft) NO 45 10 min 0,000 mm 605 W/m 2,8 C 9,7 C 14,5 km/h (3 Bft) 100 %
27.03.2014 10:50 10,1 C 9,7 C 10,1 C 61 % 1011,0 hPa 0,0 l/m 3,2 km/h (1 Bft) NO 45 10 min 0,000 mm 612 W/m 2,9 C 10,1 C 16,1 km/h (3 Bft) 99 %
27.03.2014 11:00 10,3 C 10,1 C 10,3 C 60 % 1011,0 hPa 0,0 l/m 1,6 km/h (1 Bft) NO 45 10 min 0,279 mm 628 W/m 2,9 C 10,3 C 11,3 km/h (2 Bft) 100 %
27.03.2014 11:10 10,6 C 10,3 C 10,6 C 58 % 1011,0 hPa 0,0 l/m 3,2 km/h (1 Bft) NO 45 10 min 0,000 mm 638 W/m 2,7 C 10,6 C 11,3 km/h (2 Bft) 98 %
27.03.2014 11:20 10,8 C 10,6 C 10,8 C 57 % 1010,9 hPa 0,0 l/m 1,6 km/h (1 Bft) NO 45 10 min 0,000 mm 649 W/m 2,6 C 10,8 C 9,7 km/h (2 Bft) 99 %
27.03.2014 11:30 10,9 C 10,8 C 11,0 C 58 % 1010,9 hPa 0,0 l/m 4,8 km/h (1 Bft) NO 45 10 min 0,000 mm 657 W/m 3,0 C 10,9 C 11,3 km/h (2 Bft) 98 %
27.03.2014 11:40 11,1 C 10,9 C 11,1 C 60 % 1010,8 hPa 0,0 l/m 3,2 km/h (1 Bft) NO 45 10 min 0,000 mm 670 W/m 3,6 C 11,1 C 11,3 km/h (2 Bft) 97 %
27.03.2014 11:50 11,7 C 11,1 C 11,7 C 55 % 1010,8 hPa 0,0 l/m 3,2 km/h (1 Bft) NO 45 10 min 0,000 mm 677 W/m 3,0 C 11,7 C 16,1 km/h (3 Bft) 98 %
27.03.2014 12:00 12,0 C 11,7 C 12,0 C 55 % 1010,7 hPa 0,0 l/m 1,6 km/h (1 Bft) NO 45 10 min 0,330 mm 679 W/m 3,2 C 12,0 C 11,3 km/h (2 Bft) 97 %
27.03.2014 12:10 12,2 C 12,0 C 12,2 C 54 % 1010,6 hPa 0,0 l/m 1,6 km/h (1 Bft) NO 45 10 min 0,000 mm 687 W/m 3,2 C 12,2 C 9,7 km/h (2 Bft) 98 %
27.03.2014 12:20 12,5 C 12,2 C 12,5 C 53 % 1010,3 hPa 0,0 l/m 3,2 km/h (1 Bft) NO 45 10 min 0,000 mm 686 W/m 3,2 C 12,5 C 9,7 km/h (2 Bft) 97 %
27.03.2014 12:30 12,7 C 12,5 C 12,7 C 51 % 1010,3 hPa 0,0 l/m 3,2 km/h (1 Bft) NO 45 10 min 0,000 mm 693 W/m 2,8 C 12,7 C 9,7 km/h (2 Bft) 98 %
27.03.2014 12:40 13,1 C 12,7 C 13,1 C 52 % 1010,2 hPa 0,0 l/m 3,2 km/h (1 Bft) NO 45 10 min 0,000 mm 686 W/m 3,5 C 13,1 C 11,3 km/h (2 Bft) 98 %
27.03.2014 12:50 13,3 C 13,1 C 13,3 C 51 % 1010,2 hPa 0,0 l/m 1,6 km/h (1 Bft) NO 45 10 min 0,000 mm 689 W/m 3,4 C 13,3 C 8,0 km/h (2 Bft) 97 %
27.03.2014 13:00 13,4 C 13,3 C 13,4 C 49 % 1010,2 hPa 0,0 l/m 3,2 km/h (1 Bft) NO 45 10 min 0,356 mm 680 W/m 2,9 C 13,4 C 9,7 km/h (2 Bft) 98 %
27.03.2014 13:10 13,7 C 13,4 C 13,7 C 49 % 1010,1 hPa 0,0 l/m 3,2 km/h (1 Bft) NO 45 10 min 0,000 mm 682 W/m 3,2 C 13,7 C 14,5 km/h (3 Bft) 97 %
27.03.2014 13:20 13,8 C 13,7 C 13,8 C 49 % 1010,0 hPa 0,0 l/m 1,6 km/h (1 Bft) NO 45 10 min 0,000 mm 687 W/m 3,3 C 13,8 C 14,5 km/h (3 Bft) 98 %
27.03.2014 13:30 13,7 C 13,7 C 13,8 C 48 % 1009,9 hPa 0,0 l/m 3,2 km/h (1 Bft) NO 45 10 min 0,000 mm 527 W/m 2,9 C 13,7 C 12,9 km/h (3 Bft) 97 %
27.03.2014 13:40 13,7 C 13,6 C 13,7 C 47 % 1009,8 hPa 0,0 l/m 3,2 km/h (1 Bft) NO 45 10 min 0,000 mm 594 W/m 2,6 C 13,7 C 9,7 km/h (2 Bft) 98 %
27.03.2014 13:50 13,9 C 13,7 C 14,0 C 44 % 1009,9 hPa 0,0 l/m 3,2 km/h (1 Bft) NO 45 10 min 0,000 mm 636 W/m 1,9 C 13,9 C 20,9 km/h (4 Bft) 98 %
27.03.2014 14:00 13,4 C 13,4 C 13,9 C 45 % 1010,0 hPa 0,0 l/m 4,8 km/h (1 Bft) SO 135 10 min 0,279 mm 403 W/m 1,7 C 13,4 C 19,3 km/h (3 Bft) 97 %
27.03.2014 14:10 13,7 C 13,3 C 13,7 C 43 % 1009,9 hPa 0,0 l/m 3,2 km/h (1 Bft) SO 135 10 min 0,000 mm 729 W/m 1,4 C 13,7 C 17,7 km/h (3 Bft) 98 %
27.03.2014 14:20 14,4 C 13,7 C 14,4 C 46 % 1010,0 hPa 0,0 l/m 3,2 km/h (1 Bft) NO 45 10 min 0,000 mm 680 W/m 2,9 C 14,4 C 11,3 km/h (2 Bft) 98 %
27.03.2014 14:30 14,3 C 14,3 C 14,6 C 42 % 1010,0 hPa 0,0 l/m 1,6 km/h (1 Bft) O 90 10 min 0,000 mm 483 W/m 1,6 C 14,3 C 11,3 km/h (2 Bft) 98 %
27.03.2014 14:40 14,2 C 14,1 C 14,3 C 45 % 1009,8 hPa 0,0 l/m 3,2 km/h (1 Bft) O-SO 112 10 min 0,000 mm 654 W/m 2,4 C 14,2 C 19,3 km/h (3 Bft) 89 %
27.03.2014 14:50 14,4 C 14,2 C 14,4 C 42 % 1009,8 hPa 0,0 l/m 3,2 km/h (1 Bft) O-SO 112 10 min 0,000 mm 585 W/m 1,7 C 14,4 C 19,3 km/h (3 Bft) 97 %
27.03.2014 15:00 14,1 C 14,1 C 14,4 C 42 % 1009,6 hPa 0,0 l/m 3,2 km/h (1 Bft) O-NO 67 10 min 0,279 mm 367 W/m 1,4 C 14,1 C 16,1 km/h (3 Bft) 98 %
27.03.2014 15:10 13,5 C 13,5 C 14,1 C 41 % 1009,7 hPa 0,0 l/m 4,8 km/h (1 Bft) O-SO 112 10 min 0,000 mm 223 W/m 0,5 C 13,5 C 16,1 km/h (3 Bft) 97 %
27.03.2014 15:20 13,5 C 13,4 C 13,5 C 43 % 1009,7 hPa 0,0 l/m 1,6 km/h (1 Bft) O 90 10 min 0,000 mm 250 W/m 1,2 C 13,5 C 8,0 km/h (2 Bft) 98 %
27.03.2014 15:30 13,7 C 13,5 C 13,7 C 42 % 1009,6 hPa 0,0 l/m 1,6 km/h (1 Bft) O-SO 112 10 min 0,000 mm 311 W/m 1,0 C 13,7 C 9,7 km/h (2 Bft) 97 %
27.03.2014 15:40 13,8 C 13,7 C 13,8 C 42 % 1009,5 hPa 0,0 l/m 1,6 km/h (1 Bft) O 90 10 min 0,000 mm 297 W/m 1,1 C 13,8 C 9,7 km/h (2 Bft) 98 %
27.03.2014 15:50 13,9 C 13,8 C 13,9 C 43 % 1009,2 hPa 0,0 l/m 1,6 km/h (1 Bft) NO 45 10 min 0,000 mm 195 W/m 1,5 C 13,9 C 9,7 km/h (2 Bft) 97 %
27.03.2014 16:00 14,1 C 13,9 C 14,1 C 42 % 1009,2 hPa 0,0 l/m 1,6 km/h (1 Bft) NO 45 0 min 0,127 mm 135 W/m 1,4 C 14,1 C 9,7 km/h (2 Bft) 98 %
27.03.2014 16:10 14,2 C 14,1 C 14,2 C 42 % 1009,1 hPa 0,0 l/m 1,6 km/h (1 Bft) NO 45 0 min 0,000 mm 70 W/m 1,5 C 14,2 C 8,0 km/h (2 Bft) 98 %
27.03.2014 16:20 14,3 C 14,2 C 14,3 C 41 % 1009,1 hPa 0,0 l/m 1,6 km/h (1 Bft) O-NO 67 0 min 0,000 mm 58 W/m 1,2 C 14,3 C 11,3 km/h (2 Bft) 97 %
27.03.2014 16:30 14,2 C 14,2 C 14,3 C 40 % 1009,0 hPa 0,0 l/m 3,2 km/h (1 Bft) NO 45 0 min 0,000 mm 47 W/m 0,8 C 14,2 C 11,3 km/h (2 Bft) 98 %
27.03.2014 16:40 14,1 C 14,1 C 14,3 C 42 % 1009,0 hPa 0,0 l/m 3,2 km/h (1 Bft) NO 45 0 min 0,000 mm 42 W/m 1,4 C 14,1 C 11,3 km/h (2 Bft) 97 %
27.03.2014 17:00 14,1 C 14,1 C 14,3 C 42 % 1009,1 hPa 0,0 l/m 1,8 km/h (1 Bft) NO 43 0 min 0,028 mm 33 W/m 1,4 C 14,1 C 12,9 km/h (3 Bft) 100 %
27.03.2014 17:10 13,9 C 13,9 C 14,1 C 43 % 1009,2 hPa 0,0 l/m 2,5 km/h (1 Bft) NO 36 0 min 0,000 mm 30 W/m 1,5 C 13,9 C 8,0 km/h (2 Bft) 100 %
27.03.2014 17:20 13,8 C 13,8 C 13,9 C 43 % 1009,1 hPa 0,0 l/m 1,3 km/h (1 Bft) NO 34 0 min 0,000 mm 26 W/m 1,4 C 13,8 C 11,3 km/h (2 Bft) 100 %
27.03.2014 17:30 13,7 C 13,7 C 13,8 C 41 % 1009,4 hPa 0,0 l/m 0,9 km/h (0 Bft) O-NO 75 0 min 0,000 mm 25 W/m 0,7 C 13,7 C 12,9 km/h (3 Bft) 100 %
27.03.2014 17:40 13,6 C 13,6 C 13,8 C 40 % 1009,4 hPa 0,0 l/m 1,0 km/h (0 Bft) O-SO 112 0 min 0,000 mm 18 W/m 0,3 C 13,6 C 9,7 km/h (2 Bft) 100 %
27.03.2014 17:50 13,4 C 13,4 C 13,6 C 43 % 1009,4 hPa 0,0 l/m 0,3 km/h (0 Bft) O 81 0 min 0,000 mm 7 W/m 1,1 C 13,4 C 4,8 km/h (1 Bft) 100 %
27.03.2014 18:00 13,1 C 13,1 C 13,4 C 43 % 1009,5 hPa 0,0 l/m 0,9 km/h (0 Bft) NO 38 0 min 0,025 mm 9 W/m 0,8 C 13,1 C 4,8 km/h (1 Bft) 92 %
27.03.2014 18:10 12,8 C 12,7 C 13,1 C 43 % 1009,5 hPa 0,0 l/m 0,4 km/h (0 Bft) O 84 0 min 0,000 mm 0 W/m 0,5 C 12,8 C 4,8 km/h (1 Bft) 100 %
27.03.2014 18:20 12,4 C 12,4 C 12,8 C 44 % 1009,6 hPa 0,0 l/m 0,2 km/h (0 Bft) SO 143 0 min 0,000 mm 0 W/m 0,5 C 12,4 C 4,8 km/h (1 Bft) 100 %
27.03.2014 18:30 12,1 C 12,1 C 12,4 C 44 % 1009,7 hPa 0,0 l/m 0,4 km/h (0 Bft) N-NO 27 0 min 0,000 mm 0 W/m 0,2 C 12,1 C 4,8 km/h (1 Bft) 100 %
27.03.2014 18:40 11,7 C 11,7 C 12,1 C 46 % 1009,8 hPa 0,0 l/m 0,1 km/h (0 Bft) N-NO 32 0 min 0,000 mm 0 W/m 0,5 C 11,7 C 3,2 km/h (1 Bft) 100 %
27.03.2014 18:50 11,3 C 11,3 C 11,7 C 47 % 1009,9 hPa 0,0 l/m 0,1 km/h (0 Bft) N-NO 32 0 min 0,000 mm 0 W/m 0,4 C 11,3 C 3,2 km/h (1 Bft) 100 %
27.03.2014 19:00 10,9 C 10,9 C 11,3 C 49 % 1010,1 hPa 0,0 l/m 0,5 km/h (0 Bft) N-NO 32 0 min 0,000 mm 0 W/m 0,6 C 10,9 C 3,2 km/h (1 Bft) 100 %
27.03.2014 19:10 10,6 C 10,6 C 10,9 C 49 % 1010,2 hPa 0,0 l/m 0,4 km/h (0 Bft) N-NO 32 0 min 0,000 mm 0 W/m 0,3 C 10,6 C 3,2 km/h (1 Bft) 100 %
27.03.2014 19:20 10,4 C 10,4 C 10,6 C 50 % 1010,2 hPa 0,0 l/m 0,2 km/h (0 Bft) NO 34 0 min 0,000 mm 0 W/m 0,4 C 10,4 C 3,2 km/h (1 Bft) 100 %
27.03.2014 19:30 10,1 C 10,1 C 10,4 C 52 % 1010,2 hPa 0,0 l/m 0,5 km/h (0 Bft) NO 34 0 min 0,000 mm 0 W/m 0,7 C 10,1 C 4,8 km/h (1 Bft) 100 %
27.03.2014 19:40 9,6 C 9,6 C 10,1 C 54 % 1010,3 hPa 0,0 l/m 0,1 km/h (0 Bft) NO 34 0 min 0,000 mm 0 W/m 0,8 C 9,6 C 3,2 km/h (1 Bft) 100 %
27.03.2014 19:50 9,2 C 9,1 C 9,6 C 55 % 1010,4 hPa 0,0 l/m 0,3 km/h (0 Bft) NO 34 0 min 0,000 mm 0 W/m 0,6 C 9,2 C 3,2 km/h (1 Bft) 100 %
27.03.2014 20:00 8,8 C 8,8 C 9,2 C 57 % 1010,4 hPa 0,0 l/m 0,3 km/h (0 Bft) NO 34 0 min 0,025 mm 0 W/m 0,8 C 8,8 C 3,2 km/h (1 Bft) 100 %
27.03.2014 20:10 8,6 C 8,6 C 8,8 C 58 % 1010,5 hPa 0,0 l/m 0,0 km/h (0 Bft) NO 34 0 min 0,000 mm 0 W/m 0,8 C 8,6 C 1,6 km/h (1 Bft) 100 %
27.03.2014 20:20 8,3 C 8,3 C 8,6 C 60 % 1010,5 hPa 0,0 l/m 0,4 km/h (0 Bft) NO 34 0 min 0,000 mm 0 W/m 1,0 C 8,3 C 4,8 km/h (1 Bft) 100 %
27.03.2014 20:30 8,1 C 8,1 C 8,3 C 60 % 1010,6 hPa 0,0 l/m 0,5 km/h (0 Bft) NO 34 0 min 0,000 mm 0 W/m 0,8 C 8,1 C 4,8 km/h (1 Bft) 100 %
27.03.2014 20:40 8,1 C 8,1 C 8,1 C 61 % 1010,7 hPa 0,0 l/m 0,0 km/h (0 Bft) NO 34 0 min 0,000 mm 0 W/m 1,0 C 8,1 C 3,2 km/h (1 Bft) 100 %
27.03.2014 20:50 8,1 C 8,1 C 8,1 C 61 % 1010,7 hPa 0,0 l/m 0,5 km/h (0 Bft) NO 34 0 min 0,000 mm 0 W/m 1,0 C 8,1 C 4,8 km/h (1 Bft) 100 %
27.03.2014 21:00 8,1 C 8,1 C 8,1 C 61 % 1010,7 hPa 0,0 l/m 0,2 km/h (0 Bft) NO 34 0 min 0,026 mm 0 W/m 1,0 C 8,1 C 4,8 km/h (1 Bft) 99 %
27.03.2014 21:10 7,9 C 7,9 C 8,1 C 62 % 1010,8 hPa 0,0 l/m 0,0 km/h (0 Bft) NO 45 0 min 0,000 mm 0 W/m 1,1 C 7,9 C 4,8 km/h (1 Bft) 98 %
27.03.2014 21:20 7,9 C 7,8 C 7,9 C 63 % 1010,9 hPa 0,0 l/m 0,0 km/h (0 Bft) NO 45 0 min 0,000 mm 0 W/m 1,3 C 7,9 C 4,8 km/h (1 Bft) 97 %
27.03.2014 21:30 7,8 C 7,8 C 7,9 C 63 % 1010,9 hPa 0,0 l/m 0,0 km/h (0 Bft) NO 45 0 min 0,000 mm 0 W/m 1,2 C 7,8 C 4,8 km/h (1 Bft) 97 %
27.03.2014 21:40 7,7 C 7,7 C 7,8 C 63 % 1010,9 hPa 0,0 l/m 0,0 km/h (0 Bft) N-NO 22 0 min 0,000 mm 0 W/m 1,1 C 7,7 C 4,8 km/h (1 Bft) 99 %
27.03.2014 21:50 7,6 C 7,6 C 7,7 C 64 % 1011,0 hPa 0,0 l/m 1,6 km/h (1 Bft) N-NO 22 0 min 0,000 mm 0 W/m 1,2 C 7,6 C 4,8 km/h (1 Bft) 99 %
27.03.2014 22:00 7,5 C 7,5 C 7,6 C 64 % 1011,0 hPa 0,0 l/m 0,0 km/h (0 Bft) N-NO 22 0 min 0,025 mm 0 W/m 1,1 C 7,5 C 4,8 km/h (1 Bft) 89 %
27.03.2014 22:10 7,4 C 7,4 C 7,6 C 65 % 1011,2 hPa 0,0 l/m 0,0 km/h (0 Bft) N-NO 22 0 min 0,000 mm 0 W/m 1,3 C 7,4 C 4,8 km/h (1 Bft) 100 %
27.03.2014 22:20 7,3 C 7,3 C 7,4 C 65 % 1011,2 hPa 0,0 l/m 0,0 km/h (0 Bft) N-NO 22 0 min 0,000 mm 0 W/m 1,2 C 7,3 C 1,6 km/h (1 Bft) 100 %
27.03.2014 22:30 7,3 C 7,3 C 7,3 C 66 % 1011,4 hPa 0,0 l/m 0,0 km/h (0 Bft) N-NO 22 0 min 0,000 mm 0 W/m 1,4 C 7,3 C 4,8 km/h (1 Bft) 100 %
27.03.2014 22:40 7,3 C 7,3 C 7,3 C 66 % 1011,5 hPa 0,0 l/m 0,0 km/h (0 Bft) N-NO 22 0 min 0,000 mm 0 W/m 1,4 C 7,3 C 4,8 km/h (1 Bft) 100 %
27.03.2014 22:50 7,3 C 7,3 C 7,3 C 66 % 1011,4 hPa 0,0 l/m 0,0 km/h (0 Bft) NO 45 0 min 0,000 mm 0 W/m 1,4 C 7,3 C 3,2 km/h (1 Bft) 100 %
27.03.2014 23:00 7,3 C 7,3 C 7,3 C 67 % 1011,5 hPa 0,0 l/m 0,0 km/h (0 Bft) NO 45 0 min 0,025 mm 0 W/m 1,6 C 7,3 C 4,8 km/h (1 Bft) 100 %
27.03.2014 23:10 7,3 C 7,3 C 7,3 C 66 % 1011,6 hPa 0,0 l/m 0,0 km/h (0 Bft) NO 45 0 min 0,000 mm 0 W/m 1,4 C 7,3 C 4,8 km/h (1 Bft) 99 %
27.03.2014 23:20 7,3 C 7,3 C 7,3 C 67 % 1011,7 hPa 0,0 l/m 0,0 km/h (0 Bft) N-NO 22 0 min 0,000 mm 0 W/m 1,6 C 7,3 C 4,8 km/h (1 Bft) 100 %
27.03.2014 23:30 7,2 C 7,2 C 7,3 C 68 % 1011,6 hPa 0,0 l/m 0,0 km/h (0 Bft) NO 45 0 min 0,000 mm 0 W/m 1,7 C 7,2 C 3,2 km/h (1 Bft) 100 %
27.03.2014 23:40 7,0 C 7,0 C 7,2 C 68 % 1011,8 hPa 0,0 l/m 0,0 km/h (0 Bft) NO 45 0 min 0,000 mm 0 W/m 1,5 C 7,0 C 4,8 km/h (1 Bft) 100 %
27.03.2014 23:50 6,8 C 6,8 C 7,0 C 69 % 1011,9 hPa 0,0 l/m 0,0 km/h (0 Bft) NO 45 0 min 0,000 mm 0 W/m 1,5 C 6,8 C 1,6 km/h (1 Bft) 100 %
_ Min-Zeit 07:00 07:00 07:00 16:30 16:30 - 00:00 - - - - - 06:50 06:50 02:50 00:40
Minimum _ 0,3 C 0,3 C 0,4 C 40 % 1009,0 hPa - 0,0 km/h (0 Bft) - - - - - -1,8 C 0,4 C 0,0 km/h (0 Bft) 88 %
_ Max-Zeit 14:30 14:30 14:30 07:00 23:50 00:00 11:30 - - 07:40 13:00 14:10 11:40 14:20 10:10 00:00
Maximum _ 14,6 C 14,3 C 14,6 C 86 % 1011,9 hPa 0,0 l/m 4,8 km/h
NO (1 Bft)
- - 10 min 0,356 mm 729 W/m 3,6 C 14,4 C 20,9 km/h
N-NO (4 Bft)
100 %
Durchschnitt _ 7,7 C 7,6 C 7,8 C 64 % 1010,8 hPa #0,0 l/m 1,1 km/h (1 Bft) NO - #8:20 h #2,260 mm 375 W/m 0,8 C 7,7 C 7,1 km/h (2 Bft) 99 %
PRIVATE WETTERSTATION BILLIGHEIM-ALLFELD - www.neckar-odenwald-wetter.de - Holger Sonntag